Date,TemperatureHighF,TemperatureAvgF,TemperatureLowF,DewpointHighF,DewpointAvgF,DewpointLowF,HumidityHigh,HumidityAvg,HumidityLow,PressureMaxIn,PressureMinIn,WindSpeedMaxMPH,WindSpeedAvgMPH,GustSpeedMaxMPH,PrecipitationSumIn
2013-2-1,40.4,31.9,24.8,30.5,16.1,11.8,77,53,33,30.52,30.29,15,0,15,0.00
2013-2-2,53.7,40.0,28.9,39.3,31.2,19.4,87,71,51,30.30,30.13,14,0,14,0.02
2013-2-3,57.2,46.1,36.3,37.3,33.1,27.9,84,62,39,30.19,30.09,21,1,23,0.00
2013-2-4,56.3,46.7,36.8,45.4,36.7,29.6,92,69,45,30.10,29.90,20,2,20,0.05
2013-2-5,65.2,52.4,42.5,52.1,46.4,39.7,95,82,50,30.04,29.90,9,0,9,0.00
2013-2-6,64.7,52.2,39.0,51.3,45.4,37.5,97,79,56,30.18,30.01,6,0,11,0.01
2013-2-7,68.7,59.2,52.5,57.0,51.6,42.6,94,76,64,30.01,29.84,14,1,14,0.20
2013-2-8,58.1,46.7,33.5,57.0,41.8,30.3,96,83,70,30.29,29.87,18,1,18,0.98
2013-2-9,55.3,44.0,30.5,39.5,35.0,28.6,95,73,50,30.30,30.03,13,1,13,0.00
2013-2-10,61.2,56.7,53.0,59.1,51.3,38.9,96,83,58,30.03,29.71,22,4,22,1.07
2013-2-11,59.9,51.6,45.9,56.4,39.5,33.0,94,64,39,30.19,29.94,10,0,10,0.00
2013-2-12,52.4,47.4,40.5,42.5,39.0,35.1,92,73,54,30.14,29.76,14,1,14,0.03
2013-2-13,45.5,42.5,39.0,42.9,39.7,36.6,95,90,81,30.02,29.75,11,0,11,0.08
2013-2-14,62.3,48.4,36.0,44.2,39.1,34.4,95,73,39,30.07,29.99,18,1,18,0.00
2013-2-15,56.2,46.3,36.5,41.6,34.8,27.5,89,66,37,30.18,30.03,16,0,16,0.00
2013-2-16,37.9,36.6,33.3,30.3,26.9,23.8,77,68,61,30.19,30.17,3,0,3,0.00
2013-2-17,56.7,43.7,31.0,35.0,28.6,22.2,75,56,40,30.26,30.06,7,2,20,0.00
2013-2-18,58.1,52.7,45.5,53.1,47.5,34.2,95,83,61,30.08,29.75,28,3,29,0.90
2013-2-19,50.9,43.6,36.2,42.9,32.3,25.6,85,66,39,30.24,29.94,22,1,22,0.00
2013-2-20,38.4,35.5,32.7,29.7,23.3,17.1,82,62,49,30.34,30.16,13,0,13,0.01
2013-2-21,47.8,40.9,33.8,46.2,35.2,26.6,95,81,54,30.17,29.73,18,3,18,0.65
2013-2-22,49.4,42.5,37.3,42.6,39.7,36.3,97,90,74,30.08,29.86,7,0,7,0.00
2013-2-23,53.6,40.8,31.8,36.3,32.3,28.8,90,73,46,30.05,29.93,10,0,10,0.00
2013-2-24,61.7,45.7,29.6,38.7,33.6,27.1,95,66,40,30.08,29.86,12,1,12,0.00
2013-2-25,60.8,53.2,44.0,56.3,43.4,31.7,95,70,54,29.88,29.29,24,4,24,0.56
2013-2-26,54.4,45.4,42.3,52.4,39.6,35.0,93,80,71,29.82,29.32,28,7,28,0.01
2013-2-27,48.9,43.9,40.8,39.1,35.9,33.6,81,73,68,29.96,29.81,17,2,19,0.00
2013-2-28,46.0,39.8,32.6,33.8,30.6,28.3,87,70,56,30.10,29.96,14,0,17,0.00